Regional Weather Roundup
Issued by NWS

Home | Current Version | Previous Version | Text Only | Print | Product List | Glossary On
Versions: 1 2 3 4 5 6 7 8 9 10 11 12 13 14 15 16 17 18 19 20 21 22 23 24 25 26 27 28 29 30 31 32 33 34 35 36 37 38 39 40 41 42 43 44 45 46 47 48 49 50
000
ASUS46 KSTO 252315
RWRCA

NORTHERN AND CENTRAL CA REGIONAL WEATHER ROUNDUP
NATIONAL WEATHER SERVICE SACRAMENTO CA
400 PM PDT THU MAY 25 2017

NOTE: FAIR INDICATES FEW OR NO CLOUDS BELOW 12,000 FEET WITH NO
SIGNIFICANT WEATHER AND/OR OBSTRUCTIONS TO VISIBILITY.

CAZ001-003-260000-
NORTHWEST AREA

CITY           SKY/WX    TMP DP  RH WIND       PRES   REMARKS
CRESCENT CITY  FAIR      55  46  71 N15       29.78F
UKIAH          FAIR      74  52  46 SE12      29.71F
$$

CAZ006-505>513-260000-
BAY AREA

CITY           SKY/WX    TMP DP  RH WIND       PRES   REMARKS
SANTA ROSA     CLOUDY    62  50  64 SW12      29.78S
SAN RAFAEL     N/A       62  MM  MM MISG
NAPA           FAIR      65  50  58 S21       29.79F
CONCORD        FAIR      68  50  52 SW13      29.77F
OAKLAND CITY   N/A      MM  MM  MM MISG
OAKLAND        FAIR      66  52  60 SW24      29.79F
SAN FRAN CITY  N/A       60  MM  63 MISG
SAN FRAN ARPT  FAIR      64  48  56 S21G31    29.80F
LIVERMORE      FAIR      71  49  45 SW17      29.74F
HAYWARD        FAIR      68  48  48 W15       29.78F
REDWOOD CITY   N/A       66  MM  57 MISG
MOFFETT ARPT   FAIR      69  49  48 S12       29.78S
SAN JOSE ARPT  FAIR      68  51  54 S16G30    29.78S
$$
CAZ034-037-514>518-260000-
CENTRAL COAST

CITY           SKY/WX    TMP DP  RH WIND       PRES   REMARKS
WATSONVILLE    CLOUDY    59  53  80 W8        29.84F
SALINAS        FAIR      66  53  63 W16G25    29.80F
MONTEREY       FAIR      63  51  65 SW17G32   29.80S
SAN LUIS OBISP PTSUNNY   64  52  64 S10       29.85F
SANTA MARIA    FAIR      68  52  56 W16G28    29.82F
$$
CAZ015-016-260000-
NORTHERN SACRAMENTO VALLEY

CITY           SKY/WX    TMP DP  RH WIND       PRES   REMARKS
REDDING        FAIR      81  47  30 S14       29.64F
RED BLUFF      FAIR      77  51  40 S22       29.68F
OROVILLE       FAIR      75  51  43 S10G21    29.72F
$$
CAZ016>018-260000-
SOUTHERN SACRAMENTO VALLEY

CITY           SKY/WX    TMP DP  RH WIND       PRES   REMARKS
AUBURN         FAIR      70  48  46 S10       29.76S
BEALE AFB      SUNNY     74  51  43 S16G22    29.70S
LINCOLN        FAIR      73  46  38 S13       29.71F
MARYSVILLE     FAIR      75  51  43 SE20G25   29.71F
SAC INTL ARPT  FAIR      71  52  50 S18G24    29.71F
MATHER AIRPORT MOSUNNY   73  50  43 SW9G17    29.74F
DOWNTOWN SAC   N/A       72  MM  MM MISG
SAC EXEC ARPT  FAIR      70  51  51 SW15      29.74F
VACAVILLE      FAIR      69  51  52 SW17G26   29.75S
TRAVIS AFB     SUNNY     67  50  54 W23       29.74S
$$
CAZ019>021-260000-
SAN JOAQUIN VALLEY

CITY           SKY/WX    TMP DP  RH WIND       PRES   REMARKS
STOCKTON       FAIR      80  51  36 NW9       29.72F
MODESTO        FAIR      78  48  34 VRB5      29.71F
MERCED         FAIR      76  46  34 W12G20    29.72F
LEMOORE        FAIR      81  40  23 SW9       29.72F
FRESNO         FAIR      79  46  31 SW7       29.72F
HANFORD        FAIR      81  44  27 VRB3      29.72F
PORTERVILLE      N/A     79  46  31 SW9       29.74F
BAKERSFIELD    FAIR      80  49  33 NW15G28   29.72F
$$
CAZ011-012-071-260000-
NORTHERN MOUNTAINS

CITY           SKY/WX    TMP DP  RH WIND       PRES   REMARKS
YREKA          FAIR      78  31  17 VRB3      29.68F
MOUNT SHASTA   FAIR      75  36  24 VRB5      29.69F
ALTURAS        FAIR      74  26  16 NW12G18   29.69F
$$
CAZ011-012-071-260000-
SIERRA NEVADA MTNS

CITY           SKY/WX    TMP DP  RH WIND       PRES   REMARKS
BLUE CANYON    LGT RAIN  59  39  47 S14G22    29.86S
TRUCKEE        SUNNY     64  28  25 MISG      29.83R
TAHOE VLY ARPT FAIR      64  28  25 VRB7G22   29.82S
MAMMOTH LAKES  FAIR      67   5   9 W23G41    29.87S
$$



USA.gov is the U.S. government's official web portal to all federal, state and local government web resources and services.